TimePDT,TemperatureF,Dew PointF,Humidity,Sea Level PressureIn,VisibilityMPH,Wind Direction,Wind SpeedMPH,Gust SpeedMPH,PrecipitationIn,Events,Conditions,WindDirDegrees,DateUTC
12:56 AM,97.0,52.0,22,29.73,10.0,Calm,Calm,-,N/A,,Clear,0,2013-07-18 07:56:00
1:56 AM,93.9,42.1,17,29.73,10.0,West,5.8,-,N/A,,Clear,270,2013-07-18 08:56:00
2:56 AM,93.9,45.0,18,29.72,10.0,Calm,Calm,-,N/A,,Clear,0,2013-07-18 09:56:00
3:56 AM,91.0,46.9,22,29.72,10.0,Calm,Calm,-,N/A,,Clear,0,2013-07-18 10:56:00
4:56 AM,90.0,55.0,30,29.73,10.0,NW,4.6,-,N/A,,Clear,320,2013-07-18 11:56:00
5:56 AM,89.1,53.1,29,29.75,10.0,WNW,3.5,-,N/A,,Clear,290,2013-07-18 12:56:00
6:56 AM,93.9,55.0,27,29.76,10.0,Calm,Calm,-,N/A,,Clear,0,2013-07-18 13:56:00
7:56 AM,96.1,57.9,28,29.78,10.0,ENE,4.6,-,N/A,,Clear,70,2013-07-18 14:56:00
8:56 AM,99.0,59.0,26,29.78,10.0,East,5.8,-,N/A,,Clear,90,2013-07-18 15:56:00
9:56 AM,100.9,57.9,24,29.77,10.0,ESE,8.1,-,N/A,,Clear,120,2013-07-18 16:56:00
10:56 AM,102.9,57.0,22,29.76,10.0,Calm,Calm,-,N/A,,Partly Cloudy,0,2013-07-18 17:56:00
11:56 AM,107.1,54.0,17,29.73,10.0,East,9.2,-,N/A,,Partly Cloudy,100,2013-07-18 18:56:00
12:56 PM,109.0,53.1,16,29.71,10.0,WSW,5.8,-,N/A,,Partly Cloudy,250,2013-07-18 19:56:00
1:56 PM,111.0,53.1,15,29.68,10.0,NW,5.8,-,N/A,,Scattered Clouds,310,2013-07-18 20:56:00
2:56 PM,111.9,52.0,14,29.64,10.0,Variable,5.8,-,N/A,,Mostly Cloudy,0,2013-07-18 21:56:00
3:56 PM,111.9,51.1,13,29.60,10.0,SE,6.9,-,N/A,,Overcast,140,2013-07-18 22:56:00
4:56 PM,111.9,50.0,13,29.59,10.0,Calm,Calm,-,N/A,,Overcast,0,2013-07-18 23:56:00
5:56 PM,109.0,55.9,17,29.59,10.0,ESE,18.4,28.8,N/A,,Partly Cloudy,110,2013-07-19 00:56:00
6:06 PM,107.6,57.2,19,29.72,10.0,ESE,23.0,31.1,N/A,,Partly Cloudy,110,2013-07-19 01:06:00
6:56 PM,104.0,57.0,21,29.61,10.0,SE,26.5,32.2,N/A,,Scattered Clouds,130,2013-07-19 01:56:00
7:56 PM,106.0,52.0,17,29.62,10.0,SSE,13.8,-,N/A,,Scattered Clouds,150,2013-07-19 02:56:00
8:56 PM,102.0,55.0,21,29.64,10.0,ESE,13.8,-,N/A,,Partly Cloudy,110,2013-07-19 03:56:00
9:56 PM,100.0,57.0,24,29.65,10.0,East,12.7,-,N/A,,Clear,100,2013-07-19 04:56:00
10:56 PM,100.0,55.9,23,29.65,10.0,Calm,Calm,-,N/A,,Partly Cloudy,0,2013-07-19 05:56:00
11:56 PM,99.0,55.9,24,29.65,10.0,WNW,5.8,-,N/A,,Partly Cloudy,300,2013-07-19 06:56:00